Total_Precipitation_Accumulation
0.00 0.00 0.00 0.00 0.00 0.00 0.00 0.00 0.00 0.00 0.00 0.00 0.00 0.00 0.00 0.01 0.03 0.05 0.04 0.02 0.00 0.00 0.00 0.00 0.00 0.00 0.00 0.01 0.02 0.09 0.29 0.35 0.31 0.36 0.26 0.13 0.07 0.05 0.01 0.00 0.00 0.00 0.00
0.00 0.00 0.00 0.00 0.00 0.00 0.00 0.00 0.00 0.00 0.00 0.00 0.00 0.00 0.01 0.03 0.03 0.06 0.09 0.08 0.08 0.04 0.01 0.00 0.00 0.00 0.01 0.01 0.01 0.09 0.16 0.13 0.15 0.16 0.15 0.10 0.04 0.02 0.01 0.01 0.00 0.00 0.00
0.00 0.00 0.00 0.00 0.00 0.00 0.00 0.00 0.00 0.00 0.00 0.00 0.00 0.00 0.01 0.04 0.09 0.06 0.05 0.06 0.05 0.05 0.04 0.01 0.00 0.01 0.02 0.02 0.01 0.03 0.11 0.16 0.17 0.17 0.17 0.09 0.05 0.01 0.00 0.00 0.00 0.00 0.00
0.01 0.00 0.00 0.00 0.00 0.00 0.00 0.00 0.00 0.00 0.00 0.00 0.00 0.01 0.03 0.06 0.09 0.10 0.11 0.08 0.04 0.06 0.05 0.01 0.01 0.02 0.02 0.04 0.03 0.02 0.04 0.08 0.10 0.11 0.11 0.07 0.04 0.04 0.03 0.01 0.00 0.00 0.00
0.01 0.01 0.01 0.02 0.01 0.00 0.00 0.00 0.01 0.01 0.00 0.00 0.00 0.02 0.04 0.07 0.09 0.12 0.14 0.17 0.11 0.07 0.03 0.02 0.02 0.03 0.04 0.06 0.07 0.07 0.08 0.09 0.11 0.08 0.07 0.09 0.14 0.13 0.12 0.05 0.01 0.00 0.00
0.04 0.03 0.04 0.05 0.04 0.03 0.01 0.00 0.01 0.02 0.04 0.02 0.01 0.02 0.05 0.07 0.08 0.12 0.14 0.15 0.15 0.10 0.05 0.02 0.02 0.04 0.06 0.06 0.07 0.13 0.17 0.16 0.16 0.15 0.13 0.10 0.09 0.07 0.11 0.10 0.06 0.08 0.04
0.16 0.19 0.23 0.16 0.13 0.08 0.08 0.04 0.01 0.01 0.04 0.11 0.12 0.09 0.09 0.13 0.12 0.16 0.24 0.24 0.19 0.08 0.06 0.04 0.04 0.05 0.08 0.10 0.14 0.15 0.19 0.26 0.34 0.41 0.43 0.38 0.33 0.30 0.33 0.39 0.30 0.26 0.17
0.19 0.19 0.33 0.29 0.24 0.15 0.09 0.04 0.02 0.03 0.02 0.08 0.15 0.16 0.16 0.19 0.17 0.15 0.22 0.20 0.10 0.04 0.02 0.03 0.10 0.16 0.20 0.28 0.28 0.29 0.29 0.29 0.33 0.37 0.49 0.59 0.54 0.50 0.56 0.60 0.54 0.48 0.29
0.05 0.07 0.12 0.26 0.20 0.20 0.18 0.10 0.05 0.06 0.06 0.03 0.02 0.05 0.09 0.11 0.11 0.12 0.10 0.09 0.09 0.06 0.05 0.05 0.07 0.16 0.20 0.31 0.31 0.28 0.27 0.25 0.30 0.35 0.39 0.44 0.46 0.46 0.44 0.44 0.50 0.54 0.47
0.02 0.01 0.03 0.06 0.14 0.07 0.10 0.19 0.16 0.06 0.09 0.11 0.05 0.06 0.08 0.12 0.17 0.16 0.11 0.06 0.02 0.04 0.04 0.06 0.10 0.13 0.17 0.21 0.20 0.23 0.19 0.19 0.20 0.21 0.22 0.18 0.11 0.11 0.12 0.13 0.17 0.22 0.27
0.01 0.01 0.01 0.02 0.02 0.04 0.08 0.15 0.16 0.12 0.21 0.29 0.16 0.20 0.25 0.16 0.14 0.15 0.15 0.15 0.10 0.07 0.06 0.04 0.05 0.06 0.05 0.06 0.06 0.08 0.10 0.12 0.09 0.06 0.07 0.06 0.05 0.06 0.07 0.09 0.13 0.17 0.25
0.00 0.01 0.00 0.01 0.01 0.01 0.02 0.02 0.03 0.02 0.02 0.04 0.09 0.14 0.20 0.22 0.16 0.16 0.19 0.11 0.07 0.06 0.14 0.08 0.01 0.01 0.00 0.00 0.01 0.02 0.03 0.04 0.06 0.06 0.06 0.06 0.04 0.05 0.07 0.09 0.12 0.15 0.16
0.00 0.00 0.00 0.00 0.00 0.00 0.00 0.00 0.00 0.00 0.00 0.01 0.05 0.05 0.03 0.04 0.01 0.03 0.03 0.03 0.03 0.03 0.02 0.01 0.00 0.00 0.00 0.00 0.00 0.01 0.02 0.03 0.03 0.03 0.03 0.03 0.07 0.11 0.12 0.13 0.14 0.16 0.16
0.00 0.00 0.00 0.00 0.00 0.00 0.00 0.00 0.00 0.00 0.00 0.00 0.00 0.00 0.00 0.00 0.00 0.00 0.00 0.00 0.00 0.00 0.00 0.00 0.00 0.00 0.00 0.00 0.00 0.00 0.00 0.00 0.00 0.00 0.01 0.01 0.02 0.04 0.08 0.14 0.17 0.22 0.31
0.00 0.00 0.00 0.00 0.00 0.00 0.00 0.00 0.00 0.00 0.00 0.00 0.00 0.00 0.00 0.00 0.00 0.00 0.00 0.00 0.00 0.00 0.00 0.00 0.00 0.00 0.00 0.00 0.00 0.00 0.00 0.00 0.00 0.00 0.00 0.00 0.00 0.00 0.00 0.02 0.05 0.11 0.23
0.00 0.00 0.00 0.00 0.00 0.00 0.00 0.00 0.00 0.00 0.00 0.00 0.00 0.00 0.00 0.00 0.00 0.00 0.00 0.00 0.00 0.00 0.00 0.00 0.00 0.00 0.00 0.00 0.00 0.00 0.00 0.00 0.00 0.00 0.00 0.00 0.00 0.00 0.00 0.00 0.00 0.01 0.05
0.00 0.00 0.00 0.00 0.00 0.00 0.00 0.00 0.00 0.00 0.00 0.00 0.00 0.00 0.00 0.00 0.00 0.00 0.00 0.00 0.00 0.00 0.00 0.00 0.00 0.00 0.00 0.00 0.00 0.00 0.00 0.00 0.00 0.00 0.00 0.00 0.00 0.00 0.00 0.00 0.00 0.00 0.01
0.00 0.00 0.00 0.00 0.00 0.00 0.00 0.00 0.00 0.00 0.00 0.00 0.00 0.00 0.00 0.00 0.00 0.00 0.00 0.00 0.00 0.00 0.00 0.00 0.00 0.00 0.00 0.00 0.00 0.00 0.00 0.00 0.00 0.00 0.00 0.00 0.00 0.00 0.00 0.00 0.01 0.01 0.01
0.00 0.00 0.00 0.00 0.00 0.00 0.00 0.00 0.00 0.00 0.00 0.00 0.00 0.00 0.00 0.00 0.00 0.00 0.00 0.00 0.00 0.00 0.00 0.00 0.00 0.00 0.00 0.00 0.00 0.00 0.00 0.00 0.00 0.00 0.00 0.00 0.00 0.00 0.01 0.01 0.01 0.01 0.00
0.00 0.00 0.00 0.00 0.00 0.00 0.00 0.00 0.00 0.00 0.00 0.00 0.00 0.00 0.00 0.00 0.00 0.00 0.00 0.00 0.00 0.00 0.00 0.00 0.00 0.00 0.00 0.00 0.00 0.00 0.00 0.00 0.00 0.00 0.00 0.00 0.01 0.01 0.02 0.02 0.02 0.01 0.00
0.00 0.00 0.00 0.00 0.00 0.00 0.00 0.00 0.00 0.00 0.00 0.00 0.00 0.00 0.00 0.00 0.00 0.00 0.00 0.00 0.00 0.00 0.00 0.00 0.00 0.00 0.00 0.00 0.00 0.00 0.00 0.00 0.00 0.00 0.00 0.00 0.00 0.01 0.02 0.02 0.03 0.03 0.03
0.00 0.00 0.00 0.00 0.00 0.00 0.00 0.00 0.00 0.00 0.00 0.00 0.00 0.00 0.00 0.00 0.00 0.00 0.00 0.00 0.00 0.00 0.00 0.00 0.00 0.00 0.00 0.00 0.00 0.00 0.01 0.01 0.01 0.01 0.00 0.00 0.01 0.01 0.02 0.02 0.02 0.04 0.06
0.00 0.00 0.00 0.00 0.00 0.00 0.00 0.00 0.00 0.00 0.00 0.00 0.00 0.00 0.00 0.00 0.00 0.00 0.00 0.00 0.00 0.00 0.00 0.00 0.00 0.00 0.00 0.00 0.00 0.00 0.01 0.02 0.02 0.01 0.02 0.03 0.02 0.01 0.02 0.02 0.02 0.03 0.03
0.00 0.00 0.00 0.00 0.00 0.00 0.00 0.00 0.00 0.00 0.00 0.00 0.00 0.00 0.00 0.00 0.00 0.00 0.00 0.00 0.00 0.00 0.00 0.00 0.00 0.00 0.00 0.00 0.00 0.00 0.01 0.01 0.01 0.01 0.02 0.01 0.01 0.02 0.01 0.02 0.02 0.01 0.04
0.00 0.00 0.00 0.00 0.00 0.00 0.00 0.00 0.00 0.00 0.00 0.00 0.00 0.00 0.00 0.00 0.00 0.00 0.00 0.00 0.00 0.00 0.00 0.00 0.00 0.01 0.01 0.00 0.02 0.02 0.02 0.01 0.02 0.02 0.01 0.00 0.00 0.00 0.00 0.01 0.01 0.00 0.03
0.00 0.00 0.00 0.00 0.00 0.00 0.00 0.00 0.00 0.00 0.00 0.00 0.00 0.00 0.00 0.00 0.00 0.00 0.00 0.00 0.00 0.00 0.00 0.00 0.00 0.00 0.01 0.02 0.02 0.02 0.02 0.01 0.02 0.01 0.00 0.01 0.01 0.01 0.01 0.01 0.01 0.01 0.06